<?xml version='1.0' encoding='UTF-8'?>
<gpx xmlns="http://www.topografix.com/GPX/1/1" creator="www.balnam.be" version="1.1" xmlns:xsi="http://www.w3.org/2001/XMLSchema-instance" xsi:schemaLocation="http://www.topografix.com/GPX/1/1 http://www.topografix.com/GPX/1/1/gpx.xsd">
<trk>
<name>negbr1</name>
<cmt>r</cmt>
<desc>Branchon Chemin n°1 Rue Romaine</desc>
<link href="https://chemins.be/branchon/chemin/1"/><trkseg>
<trkpt lat="50.632089" lon="4.958996"><time>2026-05-10T00:48:52Z</time></trkpt>
<trkpt lat="50.632654" lon="4.966382"><time>2026-05-10T00:58:52Z</time></trkpt>
<trkpt lat="50.632809" lon="4.969381"><time>2026-05-10T01:08:52Z</time></trkpt>
<trkpt lat="50.632876" lon="4.972039"><time>2026-05-10T01:18:52Z</time></trkpt>
<trkpt lat="50.632948" lon="4.975924"><time>2026-05-10T01:28:52Z</time></trkpt>
<trkpt lat="50.632981" lon="4.977751"><time>2026-05-10T01:38:52Z</time></trkpt>
<trkpt lat="50.633780" lon="4.980601"><time>2026-05-10T01:48:52Z</time></trkpt>
<trkpt lat="50.635956" lon="4.984858"><time>2026-05-10T01:58:52Z</time></trkpt>
</trkseg></trk>
<trk>
<name>negbr1</name>
<cmt>v</cmt>
<desc>Branchon Chemin n°1 Rue Romaine</desc>
<link href="https://chemins.be/branchon/chemin/1"/><trkseg>
<trkpt lat="50.635956" lon="4.984858"><time>2026-05-10T01:58:52Z</time></trkpt>
<trkpt lat="50.636635" lon="4.987242"><time>2026-05-10T02:08:52Z</time></trkpt>
<trkpt lat="50.636875" lon="4.989606"><time>2026-05-10T02:18:52Z</time></trkpt>
</trkseg>
</trk>
<trk>
<name>negbr10</name>
<cmt>v</cmt>
<desc>Branchon Chemin n°10 </desc>
<link href="https://chemins.be/branchon/chemin/10"/><trkseg>
<trkpt lat="50.633595" lon="4.972020"><time>2026-05-10T00:48:52Z</time></trkpt>
<trkpt lat="50.635828" lon="4.969787"><time>2026-05-10T00:58:52Z</time></trkpt>
</trkseg></trk>
<trk>
<name>negbr10</name>
<cmt>s</cmt>
<desc>Branchon Chemin n°10 </desc>
<link href="https://chemins.be/branchon/chemin/10"/><trkseg>
<trkpt lat="50.635828" lon="4.969787"><time>2026-05-10T00:58:52Z</time></trkpt>
<trkpt lat="50.636803" lon="4.968937"><time>2026-05-10T01:08:52Z</time></trkpt>
</trkseg>
</trk>
<trk>
<name>negbr11</name>
<cmt>r</cmt>
<desc>Branchon Chemin n°11 </desc>
<link href="https://chemins.be/branchon/chemin/11"/><trkseg>
<trkpt lat="50.635876" lon="4.984645"><time>2026-05-10T00:48:52Z</time></trkpt>
<trkpt lat="50.636638" lon="4.983326"><time>2026-05-10T00:58:52Z</time></trkpt>
<trkpt lat="50.639519" lon="4.979066"><time>2026-05-10T01:08:52Z</time></trkpt>
<trkpt lat="50.644129" lon="4.972607"><time>2026-05-10T01:18:52Z</time></trkpt>
<trkpt lat="50.645543" lon="4.970349"><time>2026-05-10T01:28:52Z</time></trkpt>
</trkseg></trk>
<trk>
<name>negbr11</name>
<cmt>v</cmt>
<desc>Branchon Chemin n°11 </desc>
<link href="https://chemins.be/branchon/chemin/11"/><trkseg>
<trkpt lat="50.645543" lon="4.970349"><time>2026-05-10T01:28:52Z</time></trkpt>
<trkpt lat="50.648671" lon="4.965723"><time>2026-05-10T01:38:52Z</time></trkpt>
</trkseg>
</trk>
<trk>
<name>negbr12</name>
<cmt>r</cmt>
<desc>Branchon Chemin n°12 Baty de Branchon</desc>
<link href="https://chemins.be/branchon/chemin/12"/><trkseg>
<trkpt lat="50.632522" lon="4.967539"><time>2026-05-10T00:48:52Z</time></trkpt>
<trkpt lat="50.630758" lon="4.967885"><time>2026-05-10T00:58:52Z</time></trkpt>
<trkpt lat="50.628681" lon="4.967872"><time>2026-05-10T01:08:52Z</time></trkpt>
</trkseg>
</trk>
<trk>
<name>negbr13</name>
<cmt>r</cmt>
<desc>Branchon Chemin n°13 Rue du Moulin</desc>
<link href="https://chemins.be/branchon/chemin/13"/><trkseg>
<trkpt lat="50.628586" lon="4.972309"><time>2026-05-10T00:48:52Z</time></trkpt>
<trkpt lat="50.628295" lon="4.971217"><time>2026-05-10T00:58:52Z</time></trkpt>
<trkpt lat="50.628043" lon="4.969546"><time>2026-05-10T01:08:52Z</time></trkpt>
<trkpt lat="50.628611" lon="4.969327"><time>2026-05-10T01:18:52Z</time></trkpt>
</trkseg>
</trk>
<trk>
<name>negbr14</name>
<cmt>r</cmt>
<desc>Branchon Chemin n°14 </desc>
<link href="https://chemins.be/branchon/chemin/14"/><trkseg>
<trkpt lat="50.626423" lon="4.973384"><time>2026-05-10T00:48:52Z</time></trkpt>
<trkpt lat="50.626163" lon="4.974935"><time>2026-05-10T00:58:52Z</time></trkpt>
<trkpt lat="50.625700" lon="4.975947"><time>2026-05-10T01:08:52Z</time></trkpt>
<trkpt lat="50.625608" lon="4.976285"><time>2026-05-10T01:18:52Z</time></trkpt>
<trkpt lat="50.625566" lon="4.977415"><time>2026-05-10T01:28:52Z</time></trkpt>
<trkpt lat="50.624754" lon="4.981475"><time>2026-05-10T01:38:52Z</time></trkpt>
<trkpt lat="50.624247" lon="4.982062"><time>2026-05-10T01:48:52Z</time></trkpt>
<trkpt lat="50.621403" lon="4.982647"><time>2026-05-10T01:58:52Z</time></trkpt>
</trkseg>
</trk>
<trk>
<name>negbr15</name>
<cmt>s</cmt>
<desc>Branchon Chemin n°15 </desc>
<link href="https://chemins.be/branchon/chemin/15"/><trkseg>
<trkpt lat="50.623329" lon="4.975365"><time>2026-05-10T00:48:52Z</time></trkpt>
<trkpt lat="50.624209" lon="4.975688"><time>2026-05-10T00:58:52Z</time></trkpt>
<trkpt lat="50.625527" lon="4.976355"><time>2026-05-10T01:08:52Z</time></trkpt>
</trkseg>
</trk>
<trk>
<name>negbr16</name>
<cmt>v</cmt>
<desc>Branchon Chemin n°16 </desc>
<link href="https://chemins.be/branchon/chemin/16"/><trkseg>
<trkpt lat="50.625880" lon="4.970635"><time>2026-05-10T00:48:52Z</time></trkpt>
<trkpt lat="50.625821" lon="4.969885"><time>2026-05-10T00:58:52Z</time></trkpt>
<trkpt lat="50.624691" lon="4.967567"><time>2026-05-10T01:08:52Z</time></trkpt>
<trkpt lat="50.624337" lon="4.966489"><time>2026-05-10T01:18:52Z</time></trkpt>
<trkpt lat="50.624045" lon="4.965538"><time>2026-05-10T01:28:52Z</time></trkpt>
<trkpt lat="50.624326" lon="4.965217"><time>2026-05-10T01:38:52Z</time></trkpt>
<trkpt lat="50.624054" lon="4.965538"><time>2026-05-10T01:48:52Z</time></trkpt>
<trkpt lat="50.623939" lon="4.965282"><time>2026-05-10T01:58:52Z</time></trkpt>
</trkseg>
</trk>
<trk>
<name>negbr17</name>
<cmt>q</cmt>
<desc>Branchon Chemin n°17 </desc>
<link href="https://chemins.be/branchon/chemin/17"/><trkseg>
<trkpt lat="50.627340" lon="4.980279"><time>2026-05-10T00:48:52Z</time></trkpt>
<trkpt lat="50.626793" lon="4.980017"><time>2026-05-10T00:58:52Z</time></trkpt>
<trkpt lat="50.626784" lon="4.980102"><time>2026-05-10T01:08:52Z</time></trkpt>
</trkseg></trk>
<trk>
<name>negbr17</name>
<cmt>s</cmt>
<desc>Branchon Chemin n°17 </desc>
<link href="https://chemins.be/branchon/chemin/17"/><trkseg>
<trkpt lat="50.626784" lon="4.980102"><time>2026-05-10T01:08:52Z</time></trkpt>
<trkpt lat="50.626482" lon="4.981116"><time>2026-05-10T01:18:52Z</time></trkpt>
<trkpt lat="50.626084" lon="4.981549"><time>2026-05-10T01:28:52Z</time></trkpt>
<trkpt lat="50.625427" lon="4.985102"><time>2026-05-10T01:38:52Z</time></trkpt>
</trkseg>
</trk>
<trk>
<name>negbr19</name>
<cmt>s</cmt>
<desc>Branchon Chemin n°19 </desc>
<link href="https://chemins.be/branchon/chemin/19"/><trkseg>
<trkpt lat="50.628125" lon="4.977999"><time>2026-05-10T00:48:52Z</time></trkpt>
<trkpt lat="50.626993" lon="4.977886"><time>2026-05-10T00:58:52Z</time></trkpt>
</trkseg>
</trk>
<trk>
<name>negbr2</name>
<cmt>r</cmt>
<desc>Branchon Chemin n°2 Route d'Orp-Jauche / Rue du Bois l'Abbé</desc>
<link href="https://chemins.be/branchon/chemin/2"/><trkseg>
<trkpt lat="50.618068" lon="4.979099"><time>2026-05-10T00:48:52Z</time></trkpt>
<trkpt lat="50.619538" lon="4.978355"><time>2026-05-10T00:58:52Z</time></trkpt>
<trkpt lat="50.621611" lon="4.975485"><time>2026-05-10T01:08:52Z</time></trkpt>
<trkpt lat="50.625067" lon="4.974808"><time>2026-05-10T01:18:52Z</time></trkpt>
<trkpt lat="50.625917" lon="4.973929"><time>2026-05-10T01:28:52Z</time></trkpt>
<trkpt lat="50.626704" lon="4.972893"><time>2026-05-10T01:38:52Z</time></trkpt>
<trkpt lat="50.628505" lon="4.972464"><time>2026-05-10T01:48:52Z</time></trkpt>
<trkpt lat="50.629295" lon="4.972672"><time>2026-05-10T01:58:52Z</time></trkpt>
<trkpt lat="50.630517" lon="4.972673"><time>2026-05-10T02:08:52Z</time></trkpt>
<trkpt lat="50.632921" lon="4.972096"><time>2026-05-10T02:18:52Z</time></trkpt>
<trkpt lat="50.632854" lon="4.969381"><time>2026-05-10T02:28:52Z</time></trkpt>
<trkpt lat="50.634354" lon="4.968341"><time>2026-05-10T02:38:52Z</time></trkpt>
<trkpt lat="50.635927" lon="4.966975"><time>2026-05-10T02:48:52Z</time></trkpt>
<trkpt lat="50.637097" lon="4.965051"><time>2026-05-10T02:58:52Z</time></trkpt>
<trkpt lat="50.639244" lon="4.963319"><time>2026-05-10T03:08:52Z</time></trkpt>
<trkpt lat="50.641576" lon="4.960232"><time>2026-05-10T03:18:52Z</time></trkpt>
<trkpt lat="50.646360" lon="4.955387"><time>2026-05-10T03:28:52Z</time></trkpt>
</trkseg>
</trk>
<trk>
<name>negbr20</name>
<cmt>s</cmt>
<desc>Branchon Chemin n°20 </desc>
<link href="https://chemins.be/branchon/chemin/20"/><trkseg>
<trkpt lat="50.628465" lon="4.976675"><time>2026-05-10T00:48:52Z</time></trkpt>
<trkpt lat="50.627389" lon="4.976039"><time>2026-05-10T00:58:52Z</time></trkpt>
</trkseg>
</trk>
<trk>
<name>negbr22</name>
<cmt>r</cmt>
<desc>Branchon Chemin n°22 Rue du Marquat</desc>
<link href="https://chemins.be/branchon/chemin/22"/><trkseg>
<trkpt lat="50.635956" lon="4.984815"><time>2026-05-10T00:48:52Z</time></trkpt>
<trkpt lat="50.637388" lon="4.985965"><time>2026-05-10T00:58:52Z</time></trkpt>
<trkpt lat="50.639043" lon="4.987514"><time>2026-05-10T01:08:52Z</time></trkpt>
</trkseg>
</trk>
<trk>
<name>negbr23</name>
<cmt>s</cmt>
<desc>Branchon Sentier n°23 </desc>
<link href="https://chemins.be/branchon/sentier/23"/><trkseg>
<trkpt lat="50.634140" lon="4.965821"><time>2026-05-10T00:48:52Z</time></trkpt>
<trkpt lat="50.635050" lon="4.963670"><time>2026-05-10T00:58:52Z</time></trkpt>
<trkpt lat="50.635691" lon="4.961303"><time>2026-05-10T01:08:52Z</time></trkpt>
<trkpt lat="50.637121" lon="4.957617"><time>2026-05-10T01:18:52Z</time></trkpt>
</trkseg>
</trk>
<trk>
<name>negbr24</name>
<cmt>s</cmt>
<desc>Branchon Sentier n°24 </desc>
<link href="https://chemins.be/branchon/sentier/24"/><trkseg>
<trkpt lat="50.632400" lon="4.964923"><time>2026-05-10T00:48:52Z</time></trkpt>
<trkpt lat="50.631645" lon="4.964913"><time>2026-05-10T00:58:52Z</time></trkpt>
<trkpt lat="50.630766" lon="4.964535"><time>2026-05-10T01:08:52Z</time></trkpt>
<trkpt lat="50.629629" lon="4.963686"><time>2026-05-10T01:18:52Z</time></trkpt>
<trkpt lat="50.627945" lon="4.962365"><time>2026-05-10T01:28:52Z</time></trkpt>
</trkseg></trk>
<trk>
<name>negbr24</name>
<cmt>d</cmt>
<desc>Branchon Sentier n°24 </desc>
<link href="https://chemins.be/branchon/sentier/24"/><trkseg>
<trkpt lat="50.627945" lon="4.962365"><time>2026-05-10T01:28:52Z</time></trkpt>
<trkpt lat="50.627552" lon="4.961950"><time>2026-05-10T01:38:52Z</time></trkpt>
</trkseg>
</trk>
<trk>
<name>negbr25</name>
<cmt>s</cmt>
<desc>Branchon Sentier n°25 </desc>
<link href="https://chemins.be/branchon/sentier/25"/><trkseg>
<trkpt lat="50.630299" lon="4.969617"><time>2026-05-10T00:48:52Z</time></trkpt>
<trkpt lat="50.630937" lon="4.969837"><time>2026-05-10T00:58:52Z</time></trkpt>
<trkpt lat="50.632666" lon="4.970948"><time>2026-05-10T01:08:52Z</time></trkpt>
</trkseg>
</trk>
<trk>
<name>negbr26</name>
<cmt>s</cmt>
<desc>Branchon Sentier n°26 </desc>
<link href="https://chemins.be/branchon/sentier/26"/><trkseg>
<trkpt lat="50.628184" lon="4.970226"><time>2026-05-10T00:48:52Z</time></trkpt>
<trkpt lat="50.628787" lon="4.970036"><time>2026-05-10T00:58:52Z</time></trkpt>
</trkseg>
</trk>
<trk>
<name>negbr27</name>
<cmt>s</cmt>
<desc>Branchon Sentier n°27 </desc>
<link href="https://chemins.be/branchon/sentier/27"/><trkseg>
<trkpt lat="50.628286" lon="4.971302"><time>2026-05-10T00:48:52Z</time></trkpt>
<trkpt lat="50.627745" lon="4.971578"><time>2026-05-10T00:58:52Z</time></trkpt>
<trkpt lat="50.626506" lon="4.971209"><time>2026-05-10T01:08:52Z</time></trkpt>
</trkseg>
</trk>
<trk>
<name>negbr28</name>
<cmt>q</cmt>
<desc>Branchon Sentier n°28 </desc>
<link href="https://chemins.be/branchon/sentier/28"/><trkseg>
<trkpt lat="50.627646" lon="4.971619"><time>2026-05-10T00:48:52Z</time></trkpt>
<trkpt lat="50.627661" lon="4.972213"><time>2026-05-10T00:58:52Z</time></trkpt>
<trkpt lat="50.627560" lon="4.972508"><time>2026-05-10T01:08:52Z</time></trkpt>
<trkpt lat="50.627299" lon="4.972731"><time>2026-05-10T01:18:52Z</time></trkpt>
</trkseg>
</trk>
<trk>
<name>negbr29</name>
<cmt>v</cmt>
<desc>Branchon Sentier n°29 </desc>
<link href="https://chemins.be/branchon/sentier/29"/><trkseg>
<trkpt lat="50.627964" lon="4.972655"><time>2026-05-10T00:48:52Z</time></trkpt>
<trkpt lat="50.627871" lon="4.973275"><time>2026-05-10T00:58:52Z</time></trkpt>
</trkseg>
</trk>
<trk>
<name>negbr3</name>
<cmt>r</cmt>
<desc>Branchon Chemin n°3 Route de la Hesbaye</desc>
<link href="https://chemins.be/branchon/chemin/3"/><trkseg>
<trkpt lat="50.626767" lon="4.962435"><time>2026-05-10T00:48:52Z</time></trkpt>
<trkpt lat="50.628558" lon="4.967291"><time>2026-05-10T00:58:52Z</time></trkpt>
<trkpt lat="50.628611" lon="4.969186"><time>2026-05-10T01:08:52Z</time></trkpt>
<trkpt lat="50.629363" lon="4.971584"><time>2026-05-10T01:18:52Z</time></trkpt>
<trkpt lat="50.629278" lon="4.972445"><time>2026-05-10T01:28:52Z</time></trkpt>
<trkpt lat="50.628925" lon="4.972794"><time>2026-05-10T01:38:52Z</time></trkpt>
<trkpt lat="50.628581" lon="4.976875"><time>2026-05-10T01:48:52Z</time></trkpt>
<trkpt lat="50.627942" lon="4.978704"><time>2026-05-10T01:58:52Z</time></trkpt>
</trkseg>
</trk>
<trk>
<name>negbr30</name>
<cmt>v</cmt>
<desc>Branchon Sentier n°30 </desc>
<link href="https://chemins.be/branchon/sentier/30"/><trkseg>
<trkpt lat="50.628730" lon="4.974021"><time>2026-05-10T00:48:52Z</time></trkpt>
<trkpt lat="50.628470" lon="4.974004"><time>2026-05-10T00:58:52Z</time></trkpt>
<trkpt lat="50.628173" lon="4.973972"><time>2026-05-10T01:08:52Z</time></trkpt>
<trkpt lat="50.627931" lon="4.973940"><time>2026-05-10T01:18:52Z</time></trkpt>
<trkpt lat="50.627988" lon="4.973362"><time>2026-05-10T01:28:52Z</time></trkpt>
</trkseg>
</trk>
<trk>
<name>negbr31</name>
<cmt>v</cmt>
<desc>Branchon Sentier n°31 </desc>
<link href="https://chemins.be/branchon/sentier/31"/><trkseg>
<trkpt lat="50.628643" lon="4.975335"><time>2026-05-10T00:48:52Z</time></trkpt>
<trkpt lat="50.628786" lon="4.975351"><time>2026-05-10T00:58:52Z</time></trkpt>
<trkpt lat="50.629371" lon="4.975372"><time>2026-05-10T01:08:52Z</time></trkpt>
<trkpt lat="50.629695" lon="4.975292"><time>2026-05-10T01:18:52Z</time></trkpt>
</trkseg>
</trk>
<trk>
<name>negbr32</name>
<cmt>v</cmt>
<desc>Branchon Sentier n°32 </desc>
<link href="https://chemins.be/branchon/sentier/32"/><trkseg>
<trkpt lat="50.630669" lon="4.974555"><time>2026-05-10T00:48:52Z</time></trkpt>
<trkpt lat="50.629895" lon="4.974729"><time>2026-05-10T00:58:52Z</time></trkpt>
<trkpt lat="50.629695" lon="4.975193"><time>2026-05-10T01:08:52Z</time></trkpt>
</trkseg></trk>
<trk>
<name>negbr32</name>
<cmt>s</cmt>
<desc>Branchon Sentier n°32 </desc>
<link href="https://chemins.be/branchon/sentier/32"/><trkseg>
<trkpt lat="50.629695" lon="4.975193"><time>2026-05-10T01:08:52Z</time></trkpt>
<trkpt lat="50.629624" lon="4.976803"><time>2026-05-10T01:18:52Z</time></trkpt>
<trkpt lat="50.629580" lon="4.978244"><time>2026-05-10T01:28:52Z</time></trkpt>
<trkpt lat="50.629444" lon="4.978554"><time>2026-05-10T01:38:52Z</time></trkpt>
<trkpt lat="50.627900" lon="4.979763"><time>2026-05-10T01:48:52Z</time></trkpt>
<trkpt lat="50.627666" lon="4.979831"><time>2026-05-10T01:58:52Z</time></trkpt>
</trkseg>
</trk>
<trk>
<name>negbr34</name>
<cmt>v</cmt>
<desc>Branchon Sentier n°34 </desc>
<link href="https://chemins.be/branchon/sentier/34"/><trkseg>
<trkpt lat="50.648678" lon="4.965723"><time>2026-05-10T00:48:52Z</time></trkpt>
<trkpt lat="50.646968" lon="4.962341"><time>2026-05-10T00:58:52Z</time></trkpt>
<trkpt lat="50.646122" lon="4.960299"><time>2026-05-10T01:08:52Z</time></trkpt>
</trkseg></trk>
<trk>
<name>negbr34</name>
<cmt>q</cmt>
<desc>Branchon Sentier n°34 </desc>
<link href="https://chemins.be/branchon/sentier/34"/><trkseg>
<trkpt lat="50.646122" lon="4.960299"><time>2026-05-10T01:08:52Z</time></trkpt>
<trkpt lat="50.644887" lon="4.956834"><time>2026-05-10T01:18:52Z</time></trkpt>
</trkseg>
</trk>
<trk>
<name>negbr35</name>
<cmt>s</cmt>
<desc>Branchon Sentier n°35 </desc>
<link href="https://chemins.be/branchon/sentier/35"/><trkseg>
<trkpt lat="50.629913" lon="4.967747"><time>2026-05-10T00:48:52Z</time></trkpt>
<trkpt lat="50.629943" lon="4.965485"><time>2026-05-10T00:58:52Z</time></trkpt>
<trkpt lat="50.629986" lon="4.964030"><time>2026-05-10T01:08:52Z</time></trkpt>
</trkseg>
</trk>
<trk>
<name>negbr4</name>
<cmt>v</cmt>
<desc>Branchon Chemin n°4 </desc>
<link href="https://chemins.be/branchon/chemin/4"/><trkseg>
<trkpt lat="50.626551" lon="4.972962"><time>2026-05-10T00:48:52Z</time></trkpt>
<trkpt lat="50.626532" lon="4.971364"><time>2026-05-10T00:58:52Z</time></trkpt>
<trkpt lat="50.625879" lon="4.970748"><time>2026-05-10T01:08:52Z</time></trkpt>
</trkseg></trk>
<trk>
<name>negbr4</name>
<cmt>s</cmt>
<desc>Branchon Chemin n°4 </desc>
<link href="https://chemins.be/branchon/chemin/4"/><trkseg>
<trkpt lat="50.625879" lon="4.970748"><time>2026-05-10T01:08:52Z</time></trkpt>
<trkpt lat="50.624574" lon="4.969262"><time>2026-05-10T01:18:52Z</time></trkpt>
<trkpt lat="50.623175" lon="4.968763"><time>2026-05-10T01:28:52Z</time></trkpt>
<trkpt lat="50.622424" lon="4.967779"><time>2026-05-10T01:38:52Z</time></trkpt>
</trkseg>
</trk>
<trk>
<name>negbr5</name>
<cmt>s</cmt>
<desc>Branchon Chemin n°5 Rue du Meunier</desc>
<link href="https://chemins.be/branchon/chemin/5"/><trkseg>
<trkpt lat="50.630127" lon="4.968145"><time>2026-05-10T00:48:52Z</time></trkpt>
<trkpt lat="50.630444" lon="4.971259"><time>2026-05-10T00:58:52Z</time></trkpt>
<trkpt lat="50.630535" lon="4.972702"><time>2026-05-10T01:08:52Z</time></trkpt>
</trkseg></trk>
<trk>
<name>negbr5</name>
<cmt>r</cmt>
<desc>Branchon Chemin n°5 Rue du Meunier</desc>
<link href="https://chemins.be/branchon/chemin/5"/><trkseg>
<trkpt lat="50.630535" lon="4.972702"><time>2026-05-10T01:08:52Z</time></trkpt>
<trkpt lat="50.630539" lon="4.973762"><time>2026-05-10T01:18:52Z</time></trkpt>
<trkpt lat="50.631324" lon="4.976641"><time>2026-05-10T01:28:52Z</time></trkpt>
<trkpt lat="50.632821" lon="4.979191"><time>2026-05-10T01:38:52Z</time></trkpt>
<trkpt lat="50.633714" lon="4.980418"><time>2026-05-10T01:48:52Z</time></trkpt>
</trkseg>
</trk>
<trk>
<name>negbr6</name>
<cmt>r</cmt>
<desc>Branchon Chemin n°6 Route d'Orp-Jauche</desc>
<link href="https://chemins.be/branchon/chemin/6"/><trkseg>
<trkpt lat="50.636552" lon="4.968863"><time>2026-05-10T00:48:52Z</time></trkpt>
<trkpt lat="50.640247" lon="4.968684"><time>2026-05-10T00:58:52Z</time></trkpt>
<trkpt lat="50.645363" lon="4.970431"><time>2026-05-10T01:08:52Z</time></trkpt>
</trkseg>
</trk>
<trk>
<name>negbr7</name>
<cmt>s</cmt>
<desc>Branchon Chemin n°7 </desc>
<link href="https://chemins.be/branchon/chemin/7"/><trkseg>
<trkpt lat="50.643205" lon="4.952773"><time>2026-05-10T00:48:52Z</time></trkpt>
<trkpt lat="50.644904" lon="4.952794"><time>2026-05-10T00:58:52Z</time></trkpt>
<trkpt lat="50.647472" lon="4.951638"><time>2026-05-10T01:08:52Z</time></trkpt>
</trkseg>
</trk>
<trk>
<name>negbr8</name>
<cmt>r</cmt>
<desc>Branchon Chemin n°8 </desc>
<link href="https://chemins.be/branchon/chemin/8"/><trkseg>
<trkpt lat="50.632671" lon="4.966439"><time>2026-05-10T00:48:52Z</time></trkpt>
<trkpt lat="50.636857" lon="4.964865"><time>2026-05-10T00:58:52Z</time></trkpt>
<trkpt lat="50.637006" lon="4.965135"><time>2026-05-10T01:08:52Z</time></trkpt>
</trkseg>
</trk>
<trk>
<name>negbr9</name>
<cmt>r</cmt>
<desc>Branchon Chemin n°9 Chemin de Merdorp</desc>
<link href="https://chemins.be/branchon/chemin/9"/><trkseg>
<trkpt lat="50.632813" lon="4.972137"><time>2026-05-10T00:48:52Z</time></trkpt>
<trkpt lat="50.633645" lon="4.972097"><time>2026-05-10T00:58:52Z</time></trkpt>
<trkpt lat="50.634481" lon="4.972463"><time>2026-05-10T01:08:52Z</time></trkpt>
</trkseg></trk>
<trk>
<name>negbr9</name>
<cmt>v</cmt>
<desc>Branchon Chemin n°9 Chemin de Merdorp</desc>
<link href="https://chemins.be/branchon/chemin/9"/><trkseg>
<trkpt lat="50.634481" lon="4.972463"><time>2026-05-10T01:08:52Z</time></trkpt>
<trkpt lat="50.635664" lon="4.973517"><time>2026-05-10T01:18:52Z</time></trkpt>
<trkpt lat="50.637133" lon="4.974652"><time>2026-05-10T01:28:52Z</time></trkpt>
<trkpt lat="50.639574" lon="4.978981"><time>2026-05-10T01:38:52Z</time></trkpt>
<trkpt lat="50.641685" lon="4.982671"><time>2026-05-10T01:48:52Z</time></trkpt>
<trkpt lat="50.642203" lon="4.983299"><time>2026-05-10T01:58:52Z</time></trkpt>
</trkseg>
</trk>
<trk>
<name>negbri1</name>
<cmt>q</cmt>
<desc>Branchon Sentier n°i1 </desc>
<link href="https://chemins.be/branchon/sentier/i1"/><trkseg>
<trkpt lat="50.626470" lon="4.971222"><time>2026-05-10T00:48:52Z</time></trkpt>
<trkpt lat="50.626921" lon="4.971030"><time>2026-05-10T00:58:52Z</time></trkpt>
<trkpt lat="50.627497" lon="4.970797"><time>2026-05-10T01:08:52Z</time></trkpt>
</trkseg>
</trk>
<trk>
<name>negbri2</name>
<cmt>d</cmt>
<desc>Branchon Chemin n°i2 </desc>
<link href="https://chemins.be/branchon/chemin/i2"/><trkseg>
<trkpt lat="50.627092" lon="4.972742"><time>2026-05-10T00:48:52Z</time></trkpt>
<trkpt lat="50.626930" lon="4.971058"><time>2026-05-10T00:58:52Z</time></trkpt>
</trkseg>
</trk>
<trk>
<name>negbri3</name>
<cmt>s</cmt>
<desc>Branchon Sentier n°i3 </desc>
<link href="https://chemins.be/branchon/sentier/i3"/><trkseg>
<trkpt lat="50.634046" lon="4.968407"><time>2026-05-10T00:48:52Z</time></trkpt>
<trkpt lat="50.633736" lon="4.967357"><time>2026-05-10T00:58:52Z</time></trkpt>
<trkpt lat="50.633661" lon="4.966183"><time>2026-05-10T01:08:52Z</time></trkpt>
</trkseg>
</trk>
<trk>
<name>negbrL143</name>
<cmt>q</cmt>
<desc>Branchon Chemin n°L143 </desc>
<link href="https://chemins.be/branchon/chemin/L143"/><trkseg>
<trkpt lat="50.629174" lon="4.961193"><time>2026-05-10T00:48:52Z</time></trkpt>
<trkpt lat="50.630633" lon="4.964095"><time>2026-05-10T00:58:52Z</time></trkpt>
<trkpt lat="50.631037" lon="4.967888"><time>2026-05-10T01:08:52Z</time></trkpt>
</trkseg></trk>
<trk>
<name>negbrL143</name>
<cmt>v</cmt>
<desc>Branchon Chemin n°L143 </desc>
<link href="https://chemins.be/branchon/chemin/L143"/><trkseg>
<trkpt lat="50.631037" lon="4.967888"><time>2026-05-10T01:08:52Z</time></trkpt>
<trkpt lat="50.631224" lon="4.969827"><time>2026-05-10T01:18:52Z</time></trkpt>
</trkseg></trk>
<trk>
<name>negbrL143</name>
<cmt>q</cmt>
<desc>Branchon Chemin n°L143 </desc>
<link href="https://chemins.be/branchon/chemin/L143"/><trkseg>
<trkpt lat="50.631224" lon="4.969827"><time>2026-05-10T01:18:52Z</time></trkpt>
<trkpt lat="50.631221" lon="4.972145"><time>2026-05-10T01:28:52Z</time></trkpt>
<trkpt lat="50.630997" lon="4.975478"><time>2026-05-10T01:38:52Z</time></trkpt>
</trkseg></trk>
<trk>
<name>negbrL143</name>
<cmt>v</cmt>
<desc>Branchon Chemin n°L143 </desc>
<link href="https://chemins.be/branchon/chemin/L143"/><trkseg>
<trkpt lat="50.630997" lon="4.975478"><time>2026-05-10T01:38:52Z</time></trkpt>
<trkpt lat="50.630729" lon="4.978712"><time>2026-05-10T01:48:52Z</time></trkpt>
</trkseg></trk>
<trk>
<name>negbrL143</name>
<cmt>q</cmt>
<desc>Branchon Chemin n°L143 </desc>
<link href="https://chemins.be/branchon/chemin/L143"/><trkseg>
<trkpt lat="50.630729" lon="4.978712"><time>2026-05-10T01:48:52Z</time></trkpt>
<trkpt lat="50.630202" lon="4.984825"><time>2026-05-10T01:58:52Z</time></trkpt>
</trkseg>
</trk>
</gpx>